Regional Weather Roundup
Issued by NWS

Home | Current Version | Previous Version | Text Only | Print | Product List | Glossary Off
Versions: 1 2 3 4 5 6 7 8 9 10 11 12 13 14 15 16 17 18 19 20 21 22 23 24 25 26 27 28 29 30 31 32 33 34 35 36 37 38 39 40 41 42 43 44 45 46 47 48 49 50

000
ASUS43 KDTX 280001
RWRMI
MICHIGAN HOURLY REGIONAL WEATHER ROUNDUP
NATIONAL WEATHER SERVICE DETROIT/PONTIAC MI
700 PM EST FRI FEB 27 2015

NOTE: "FAIR" INDICATES FEW OR NO CLOUDS BELOW 12,000 FEET WITH NO
SIGNIFICANT WEATHER AND/OR OBSTRUCTION TO VISIBILITY.

MIZ047>049-052>055-059>063-066>070-074>076-081>083-280100-
SOUTHEAST LOWER MICHIGAN

CITY           SKY/WX    TMP DP  RH WIND       PRES   REMARKS
ADRIAN         CLEAR     12  -3  51 W6        30.60R WCI   3
6HR MIN TEMP:  11; 6HR MAX TEMP:  17; 6HR PCP: TRACE;

ALMA           CLEAR     14   3  61 SW5       30.54R WCI   6
ANN ARBOR      CLEAR     11  -2  56 S6        30.57R WCI   1
BAD AXE        CLEAR     11   1  65 SW6       30.53R WCI   1
CARO           CLEAR     10  -1  61 S5        30.54R WCI   2
DETROIT CITY   CLEAR     18  -2  41 W6        30.58R WCI  10
6HR MIN TEMP:  16; 6HR MAX TEMP:  21;

DETROIT        PTCLDY    14  -2  49 SW9       30.60R WCI   2
6HR MIN TEMP:  14; 6HR MAX TEMP:  20;

FLINT          CLEAR     15  -1  49 SW5       30.55R WCI   8
6HR MIN TEMP:  14; 6HR MAX TEMP:  19;

GROSSE ILE     CLEAR     14  -2  48 SW7       30.59R WCI   4
HILLSDALE      CLOUDY    13  -1  53 SW3       30.54S
6HR MIN TEMP:  13; 6HR MAX TEMP:  17;

HOWELL         CLEAR     13  -2  51 S3        30.54S
6HR MIN TEMP:  13; 6HR MAX TEMP:  16;


CITY           SKY/WX    TMP DP  RH WIND       PRES   REMARKS
JACKSON        PTCLDY    12   1  61 W5        30.56R WCI   4
6HR MIN TEMP:  12; 6HR MAX TEMP:  15;

LAMBERTVILLE   CLEAR     18  -2  41 CALM      30.61R
LANSING        PTCLDY    15   3  59 W8        30.56R WCI   4
6HR MIN TEMP:  14; 6HR MAX TEMP:  18; 6HR PCP: TRACE;

LAPEER         FAIR      13  -1  53 SW6       30.54S WCI   3
MASON          CLOUDY    13   0  54 SW3       30.55S
6HR MIN TEMP:  13; 6HR MAX TEMP:  18;

MONROE         CLEAR     12  -2  52 CALM      30.59R
MT. CLEMENS    CLEAR      6  -1  70 S6        30.56R WCI  -4
6HR MIN TEMP:   6; 6HR MAX TEMP:  15;

PONTIAC        PTCLDY    13  -1  54 SW7       30.54R WCI   3
6HR MIN TEMP:  13; 6HR MAX TEMP:  17;

PORT HOPE        N/A     13   1  59 SW6       30.51R WCI   4
6HR MIN TEMP:   9; 6HR MAX TEMP:  15;

PORT HURON     CLEAR     10   0  61 SW5       30.58R WCI   2
TRI CITIES     CLEAR     14   2  58 SW7       30.54R WCI   4
6HR MIN TEMP:  13; 6HR MAX TEMP:  18;

TROY           CLEAR     18  -3  40 W3        30.59R
SAGINAW HB     CLEAR     14   3  62 S8        30.54S WCI   3
$$
MIZ043>046-050>051-056>058-064>065-071>073-077>080-280100-
SOUTHWEST LOWER MICHIGAN

CITY           SKY/WX    TMP DP  RH WIND       PRES   REMARKS
BATTLE CREEK   CLEAR     14   0  53 SW9       30.56R WCI   2
6HR MIN TEMP:  14; 6HR MAX TEMP:  19;

BENTON HARBOR  CLEAR     12   1  61 S5        30.60R WCI   4
6HR MIN TEMP:  12; 6HR MAX TEMP:  16;

BIG RAPIDS     CLEAR     13   1  57 W5        30.50R WCI   5
6HR MIN TEMP:  13; 6HR MAX TEMP:  19;

COLDWATER      MOCLDY    13   1  57 SW5       30.56S WCI   5
6HR MIN TEMP:  13; 6HR MAX TEMP:  18;

FREMONT        FAIR      11  -1  58 SW5       30.54R WCI   3
HOLLAND        CLEAR     14   2  58 SW7       30.58R WCI   4
6HR MIN TEMP:  13; 6HR MAX TEMP:  20; 6HR PCP: TRACE;

GRAND RAPIDS   MOCLDY    14   4  64 W8        30.55S WCI   3
6HR MIN TEMP:  14; 6HR MAX TEMP:  18; 6HR PCP: TRACE;

IONIA          FAIR      15   6  66 SW9       30.54R WCI   3
KALAMAZOO      CLEAR     13  -2  51 W6        30.57R WCI   4
6HR MIN TEMP:  13; 6HR MAX TEMP:  18;

LUDINGTON      CLEAR     16   4  59 SW9       30.53S WCI   4
6HR MIN TEMP:  16; 6HR MAX TEMP:  18;

MARSHALL       CLEAR      9   0  65 W5        30.55R WCI   1
MOUNT PLEASANT CLEAR     15   1  53 SW6       30.51S WCI   6
6HR MIN TEMP:  14; 6HR MAX TEMP:  19;

MUSKEGON       MOCLDY    14   2  58 SW9       30.57R WCI   2
6HR MIN TEMP:  14; 6HR MAX TEMP:  19;

SOUTH HAVEN    CLEAR     15   2  58 SW3       30.59R
$$
MIZ016>042-280100-
NORTHERN LOWER MICHIGAN

CITY           SKY/WX    TMP DP  RH WIND       PRES   REMARKS
ALPENA         CLEAR     15  -1  49 W3        30.47R
6HR MIN TEMP:  15; 6HR MAX TEMP:  20; 6HR PCP: TRACE;

BEAVER ISLAND  CLEAR     11   2  69 SW7       30.46R WCI   0
6HR MIN TEMP:  11; 6HR MAX TEMP:  13;

BELLAIRE       CLEAR     13   3  65 SW3       30.50S
6HR MIN TEMP:  13; 6HR MAX TEMP:  18;

CADILLAC       CLEAR      9  -1  63 SW9       30.44R WCI  -4
CHARLEVOIX     CLOUDY    14   5  68 CALM      30.50S
6HR MIN TEMP:  11; 6HR MAX TEMP:  14;

FRANKFORT      MOCLDY    17   8  68 SW8       30.49S WCI   6
GAYLORD        CLEAR      8   0  69 W9        30.42R WCI  -5
6HR MIN TEMP:   8; 6HR MAX TEMP:  13;

GRAYLING       CLEAR     10  -1  59 W3        30.45R
6HR MIN TEMP:  10; 6HR MAX TEMP:  18;

HARBOR SPRINGS CLOUDY    10   3  74 SW5       30.47R WCI   1
HOUGHTON LAKE  CLEAR     12  -2  53 SW9       30.46R WCI   0
6HR MIN TEMP:  12; 6HR MAX TEMP:  17;

MANISTEE       PTCLDY    16   1  53 SW3       30.51S
OSCODA         CLEAR     13   0  57 SW9       30.48R WCI   0
PELLSTON       CLOUDY    11   2  67 SW5       30.47S WCI   3
6HR MIN TEMP:  11; 6HR MAX TEMP:  13;

ROGERS CITY    CLEAR     12   3  66 W3        30.48R
TRAVERSE CITY  FAIR      13   3  64 SW6       30.49S WCI   4
6HR MIN TEMP:  13; 6HR MAX TEMP:  17;

$$
MIZ007>008-015-280100-
EASTERN UPPER MICHIGAN

CITY           SKY/WX    TMP DP  RH WIND       PRES   REMARKS
KINROSS        CLEAR      9   1  72 SW3       30.44R
6HR MIN TEMP:   9; 6HR MAX TEMP:  19;

MACKINAC ISLAN CLEAR      9   2  73 SW10      30.45S WCI  -5
6HR MIN TEMP:   8; 6HR MAX TEMP:  12;

NEWBERRY       CLEAR      8   1  73 S8        30.41R WCI  -4
S. S. MARIE    CLEAR      8  -3  61 SW7       30.44R WCI  -3
6HR MIN TEMP:   7; 6HR MAX TEMP:  17;

MUNISING         N/A      4  -3  73 CALM      30.42R
6HR MIN TEMP:   3; 6HR MAX TEMP:  16;

$$
MIZ004>006-011>014-085-280100-
CENTRAL UPPER MICHIGAN

CITY           SKY/WX    TMP DP  RH WIND       PRES   REMARKS
MANISTIQUE     CLEAR     14   1  56 SW3       30.43R
ESCANABA       CLEAR     16   3  57 S12       30.43S WCI   3
6HR MIN TEMP:  12; 6HR MAX TEMP:  18;

MENOMINEE      CLEAR     16  -6  38 SW8       30.45R WCI   5
6HR MIN TEMP:  12; 6HR MAX TEMP:  19;

SAWYER-GWINN   CLEAR     16  -6  38 SW5       30.34S WCI   9
$$
MIZ001>003-009>011-084-280100-
WESTERN UPPER MICHIGAN

CITY           SKY/WX    TMP DP  RH WIND       PRES   REMARKS
IRON MOUNTAIN  CLEAR     17  -5  37 SW6       30.36R WCI   9
6HR MIN TEMP:  13; 6HR MAX TEMP:  21; 6HR PCP: TRACE;

HOUGHTON       CLEAR     10  -7  46 W9        30.34R WCI  -3
6HR MIN TEMP:   9; 6HR MAX TEMP:  12;

COPPER HARBOR    N/A     11  -5  48 CALM      30.36S
6HR MIN TEMP:  10; 6HR MAX TEMP:  17;

IRONWOOD       CLEAR     10  -8  44 W6        30.35R WCI   1
6HR MIN TEMP:  10; 6HR MAX TEMP:  16;

$$

ABBREVIATIONS USED IN REMARKS
   TC - TEMPERATURE IN CELSIUS
  WCI - WIND CHILL INDEX
   HX - HEAT INDEX
  VSB - VISIBILITY



USA.gov is the U.S. government's official web portal to all federal, state and local government web resources and services.